EZY48JH LSGG-EGPH

Flight info

Callsign EZY48JH
Flight time 1h 58m
Altitude 24000
Route SIROD Z124 IBABA/N0445F380 DCT TUTAX DCT OBURO DCT OKRIX DCT CLM DCT KOPOR DCT VESAN DCT RATUK DCT SOVAT L613 LEHOC DCT INPIP
Aircraft A319/M-SDE3FGHIRWY/LB1

Departure

Time 2026-04-25 20:45
Airport Geneva International Airport (LSGG)

Arrival

Time 2026-04-25 22:43
Airport Edinburgh Airport (EGPH)
Time Latitude Longitude Altitude Speed Heading
2026-04-25 20:06 46.23123 6.10710 1418 ft 0 kts 134°
2026-04-25 20:34 46.23128 6.10702 1418 ft 2 kts 134°
2026-04-25 20:35 46.23139 6.10686 1418 ft 2 kts 134°
2026-04-25 20:35 46.23150 6.10671 1418 ft 2 kts 153°
2026-04-25 20:35 46.23164 6.10667 1418 ft 2 kts 188°
2026-04-25 20:35 46.23178 6.10674 1418 ft 1 kts 219°
2026-04-25 20:36 46.23182 6.10681 1418 ft 1 kts 227°
2026-04-25 20:36 46.23183 6.10683 1418 ft 0 kts 226°
2026-04-25 20:38 46.23181 6.10679 1418 ft 1 kts 226°
2026-04-25 20:38 46.23166 6.10656 1418 ft 4 kts 225°
2026-04-25 20:39 46.23135 6.10612 1418 ft 7 kts 224°
2026-04-25 20:39 46.23090 6.10548 1418 ft 10 kts 225°
2026-04-25 20:39 46.23039 6.10473 1418 ft 10 kts 227°
2026-04-25 20:39 46.23022 6.10445 1418 ft 11 kts 229°
2026-04-25 20:40 46.22952 6.10334 1418 ft 7 kts 256°
2026-04-25 20:40 46.22974 6.10266 1418 ft 7 kts 319°
2026-04-25 20:40 46.23012 6.10208 1418 ft 8 kts 315°
2026-04-25 20:40 46.23053 6.10154 1418 ft 5 kts 304°
2026-04-25 20:41 46.23036 6.10103 1418 ft 6 kts 241°
2026-04-25 20:41 46.23004 6.10051 1418 ft 7 kts 226°
2026-04-25 20:41 46.22965 6.09992 1418 ft 8 kts 225°
2026-04-25 20:41 46.22919 6.09930 1418 ft 9 kts 223°
2026-04-25 20:42 46.22869 6.09858 1418 ft 10 kts 224°
2026-04-25 20:42 46.22813 6.09780 1418 ft 11 kts 224°
2026-04-25 20:42 46.22756 6.09693 1418 ft 12 kts 226°
2026-04-25 20:42 46.22694 6.09600 1418 ft 13 kts 226°
2026-04-25 20:43 46.22631 6.09504 1418 ft 13 kts 228°
2026-04-25 20:43 46.22570 6.09399 1418 ft 13 kts 240°
2026-04-25 20:43 46.22547 6.09269 1418 ft 13 kts 272°
2026-04-25 20:43 46.22575 6.09151 1418 ft 5 kts 310°
2026-04-25 20:44 46.22610 6.09144 1418 ft 6 kts 30°
2026-04-25 20:44 46.22616 6.09151 1418 ft 0 kts 37°
2026-04-25 20:44 46.22642 6.09180 1418 ft 28 kts 41°
2026-04-25 20:44 46.22968 6.09669 1419 ft 104 kts 46°
2026-04-25 20:45 46.23622 6.10630 1431 ft 162 kts 46°
2026-04-25 20:45 46.24410 6.11831 1763 ft 164 kts 47°
2026-04-25 20:45 46.25216 6.13102 2253 ft 181 kts 47°
2026-04-25 20:45 46.26054 6.14366 3195 ft 173 kts 44°
2026-04-25 20:46 46.26899 6.15569 3910 ft 179 kts 44°
2026-04-25 20:46 46.27824 6.16891 4420 ft 198 kts 44°
2026-04-25 20:46 46.28848 6.18365 4931 ft 220 kts 43°
2026-04-25 20:46 46.29957 6.19975 5525 ft 238 kts 43°
2026-04-25 20:47 46.31163 6.21741 6109 ft 257 kts 43°
2026-04-25 20:47 46.32458 6.23636 6770 ft 273 kts 43°
2026-04-25 20:47 46.33789 6.25591 7647 ft 278 kts 43°
2026-04-25 20:47 46.35128 6.27525 8590 ft 280 kts 38°
2026-04-25 20:48 46.36802 6.28847 9434 ft 278 kts
2026-04-25 20:48 46.38687 6.28862 10233 ft 278 kts 345°
2026-04-25 20:48 46.40588 6.28176 10914 ft 288 kts 342°
2026-04-25 20:48 46.42572 6.27398 11361 ft 307 kts 342°
2026-04-25 20:49 46.44680 6.26593 11761 ft 326 kts 342°
2026-04-25 20:49 46.46934 6.25760 12123 ft 344 kts 343°
2026-04-25 20:49 46.49295 6.24909 12685 ft 355 kts 343°
2026-04-25 20:49 46.51700 6.24055 13480 ft 358 kts 343°
2026-04-25 20:50 46.54099 6.23207 14242 ft 361 kts 343°
2026-04-25 20:50 46.56530 6.22346 14904 ft 365 kts 343°
2026-04-25 20:50 46.58966 6.21419 15614 ft 366 kts 338°
2026-04-25 20:50 46.61261 6.19872 16311 ft 365 kts 326°
2026-04-25 20:51 46.63249 6.17616 16981 ft 365 kts 313°
2026-04-25 20:51 46.64946 6.14935 17634 ft 367 kts 309°
2026-04-25 20:51 46.66606 6.12141 18256 ft 370 kts 309°
2026-04-25 20:51 46.68230 6.09395 18844 ft 373 kts 309°
2026-04-25 20:52 46.69929 6.06545 19435 ft 376 kts 309°
2026-04-25 20:52 46.70486 6.05588 19626 ft 376 kts 307°
2026-04-25 20:52 46.72893 6.00314 20567 ft 379 kts 297°
2026-04-25 20:52 46.73977 5.96835 21117 ft 381 kts 291°
2026-04-25 20:53 46.74913 5.93236 21664 ft 383 kts 290°
2026-04-25 20:53 46.75832 5.89577 22193 ft 385 kts 290°
2026-04-25 20:53 46.76736 5.85961 22700 ft 387 kts 290°
2026-04-25 20:53 46.77652 5.82302 23190 ft 389 kts 290°
2026-04-25 20:54 46.78581 5.78596 23668 ft 392 kts 290°
2026-04-25 20:54 46.79514 5.74880 24045 ft 394 kts 290°
2026-04-25 20:54 46.80447 5.71160 24399 ft 397 kts 290°
2026-04-25 20:54 46.81390 5.67398 24884 ft 398 kts 290°
2026-04-25 20:55 46.82332 5.63632 25329 ft 400 kts 290°
2026-04-25 20:55 46.83271 5.59877 25734 ft 402 kts 290°
2026-04-25 20:55 46.84223 5.56069 26131 ft 405 kts 290°
2026-04-25 20:55 46.85177 5.52242 26522 ft 407 kts 290°
2026-04-25 20:56 46.86145 5.48348 26908 ft 409 kts 290°
2026-04-25 20:56 46.87110 5.44459 27282 ft 411 kts 290°
2026-04-25 20:56 46.88084 5.40546 27649 ft 413 kts 290°
2026-04-25 20:56 46.89074 5.36647 28007 ft 415 kts 290°
2026-04-25 20:57 46.90068 5.32752 28368 ft 416 kts 290°
2026-04-25 20:57 46.91190 5.29027 28712 ft 418 kts 296°
2026-04-25 20:57 46.92658 5.25382 29059 ft 420 kts 302°
2026-04-25 20:57 46.94413 5.22024 29393 ft 422 kts 308°
2026-04-25 20:58 46.96451 5.18954 29739 ft 424 kts 313°
2026-04-25 20:58 46.98612 5.16049 30204 ft 422 kts 314°
2026-04-25 20:58 47.00771 5.13204 30699 ft 418 kts 314°
2026-04-25 20:58 47.02918 5.10379 31174 ft 414 kts 314°
2026-04-25 20:59 47.05048 5.07568 31628 ft 411 kts 313°
2026-04-25 20:59 47.07141 5.04794 32041 ft 409 kts 313°
2026-04-25 20:59 47.09227 5.02022 32407 ft 408 kts 313°
2026-04-25 20:59 47.11299 4.99265 32738 ft 407 kts 313°
2026-04-25 21:00 47.13376 4.96496 33050 ft 407 kts 313°
2026-04-25 21:00 47.14072 4.95569 33151 ft 407 kts 313°
2026-04-25 21:00 47.19653 4.88112 33929 ft 408 kts 313°
2026-04-25 21:01 47.21738 4.85321 34130 ft 409 kts 313°
2026-04-25 21:01 47.25941 4.79683 34141 ft 411 kts 312°
2026-04-25 21:02 47.30152 4.74020 34143 ft 411 kts 312°
2026-04-25 21:02 47.34367 4.68342 34144 ft 411 kts 312°
2026-04-25 21:03 47.38557 4.62686 34144 ft 411 kts 312°
2026-04-25 21:03 47.42765 4.56992 34144 ft 411 kts 312°
2026-04-25 21:04 47.46988 4.51265 34144 ft 411 kts 312°
2026-04-25 21:04 47.51180 4.45569 34144 ft 411 kts 312°
2026-04-25 21:05 47.55383 4.39844 34144 ft 411 kts 312°
2026-04-25 21:05 47.59566 4.34132 34146 ft 411 kts 311°
2026-04-25 21:06 47.63604 4.28178 34144 ft 408 kts 307°
2026-04-25 21:06 47.67199 4.21731 34144 ft 405 kts 302°
2026-04-25 21:07 47.70390 4.14938 34135 ft 404 kts 300°
2026-04-25 21:07 47.73537 4.08019 34126 ft 404 kts 300°
2026-04-25 21:08 47.76655 4.01143 34122 ft 404 kts 300°
2026-04-25 21:08 47.79792 3.94208 34129 ft 404 kts 300°
2026-04-25 21:09 47.83947 3.84994 34156 ft 404 kts 300°
2026-04-25 21:09 47.87585 3.76889 34190 ft 403 kts 300°
2026-04-25 21:10 47.90687 3.69966 34208 ft 403 kts 300°
2026-04-25 21:10 47.94147 3.63378 34217 ft 408 kts 308°
2026-04-25 21:11 47.98353 3.57601 34221 ft 415 kts 317°
2026-04-25 21:11 48.03189 3.52895 34223 ft 422 kts 326°
2026-04-25 21:12 48.08551 3.49240 34224 ft 427 kts 331°
2026-04-25 21:12 48.12191 3.46983 34225 ft 426 kts 331°
2026-04-25 21:13 48.19467 3.42473 34225 ft 426 kts 331°
2026-04-25 21:13 48.24925 3.39071 34225 ft 426 kts 331°
2026-04-25 21:14 48.30374 3.35663 34225 ft 426 kts 331°
2026-04-25 21:14 48.35806 3.32255 34225 ft 425 kts 330°
2026-04-25 21:15 48.41185 3.28873 34225 ft 425 kts 330°
2026-04-25 21:15 48.46632 3.25440 34224 ft 425 kts 330°
2026-04-25 21:16 48.52063 3.22010 34224 ft 425 kts 330°
2026-04-25 21:16 48.57497 3.18569 34224 ft 425 kts 330°
2026-04-25 21:17 48.62943 3.15114 34224 ft 425 kts 330°
2026-04-25 21:17 48.68373 3.11662 34224 ft 425 kts 330°
2026-04-25 21:18 48.73816 3.08196 34225 ft 427 kts 330°
2026-04-25 21:18 48.76554 3.06448 34380 ft 429 kts 330°
2026-04-25 21:18 48.79289 3.04699 34712 ft 428 kts 330°
2026-04-25 21:19 48.81994 3.02954 35046 ft 425 kts 329°
2026-04-25 21:19 48.84621 3.01077 35218 ft 423 kts 326°
2026-04-25 21:19 48.89746 2.96790 35223 ft 421 kts 323°
2026-04-25 21:20 48.93108 2.93843 35223 ft 422 kts 323°
2026-04-25 21:20 48.99862 2.87921 35225 ft 422 kts 322°
2026-04-25 21:21 49.04897 2.83511 35226 ft 418 kts 321°
2026-04-25 21:21 49.09891 2.79120 35224 ft 413 kts 319°
2026-04-25 21:22 49.14769 2.74813 35214 ft 410 kts 319°
2026-04-25 21:22 49.19586 2.70536 35207 ft 409 kts 319°
2026-04-25 21:23 49.24468 2.66200 35203 ft 409 kts 319°
2026-04-25 21:23 49.29394 2.61822 35201 ft 410 kts 319°
2026-04-25 21:24 49.34604 2.58122 35201 ft 425 kts 328°
2026-04-25 21:24 49.40209 2.55152 35200 ft 426 kts 329°
2026-04-25 21:25 49.45777 2.52225 35200 ft 426 kts 329°
2026-04-25 21:25 49.51367 2.49256 35199 ft 426 kts 329°
2026-04-25 21:26 49.56942 2.46277 35199 ft 426 kts 329°
2026-04-25 21:26 49.62486 2.43303 35199 ft 426 kts 329°
2026-04-25 21:27 49.68064 2.40302 35199 ft 426 kts 329°
2026-04-25 21:27 49.73621 2.37306 35199 ft 426 kts 329°
2026-04-25 21:28 49.79160 2.34312 35202 ft 425 kts 328°
2026-04-25 21:28 49.84619 2.31356 35200 ft 425 kts 328°
2026-04-25 21:29 49.90229 2.28311 35200 ft 424 kts 328°
2026-04-25 21:29 49.95772 2.25294 35200 ft 424 kts 328°
2026-04-25 21:30 50.01309 2.22273 35200 ft 425 kts 328°
2026-04-25 21:30 50.05914 2.19755 35200 ft 425 kts 328°
2026-04-25 21:31 50.12382 2.16210 35199 ft 425 kts 328°
2026-04-25 21:31 50.17897 2.13182 35199 ft 425 kts 328°
2026-04-25 21:32 50.23463 2.10116 35200 ft 425 kts 328°
2026-04-25 21:32 50.28978 2.07035 35203 ft 422 kts 327°
2026-04-25 21:33 50.34266 2.03363 35208 ft 413 kts 321°
2026-04-25 21:33 50.39159 1.98909 35214 ft 404 kts 315°
2026-04-25 21:34 50.43623 1.93764 35219 ft 396 kts 310°
2026-04-25 21:34 50.47784 1.88172 35222 ft 395 kts 309°
2026-04-25 21:35 50.51933 1.82506 35223 ft 395 kts 309°
2026-04-25 21:35 50.56065 1.76850 35224 ft 395 kts 309°
2026-04-25 21:36 50.60198 1.71182 35224 ft 395 kts 309°
2026-04-25 21:36 50.64322 1.65509 35224 ft 395 kts 309°
2026-04-25 21:37 50.67098 1.61680 35224 ft 395 kts 309°
2026-04-25 21:37 50.72558 1.54119 35224 ft 395 kts 309°
2026-04-25 21:38 50.76688 1.48385 35224 ft 395 kts 309°
2026-04-25 21:38 50.80118 1.43610 35224 ft 395 kts 309°
2026-04-25 21:39 50.84920 1.36922 35223 ft 395 kts 309°
2026-04-25 21:39 50.88996 1.31234 35226 ft 394 kts 308°
2026-04-25 21:40 50.93093 1.25514 35225 ft 392 kts 307°
2026-04-25 21:40 50.97153 1.19823 35225 ft 390 kts 306°
2026-04-25 21:41 51.00527 1.15078 35225 ft 388 kts 305°
2026-04-25 21:41 51.05213 1.08539 35225 ft 389 kts 306°
2026-04-25 21:42 51.09560 1.03285 35224 ft 396 kts 310°
2026-04-25 21:42 51.14018 0.98325 35223 ft 396 kts 310°
2026-04-25 21:43 51.17782 0.94153 35224 ft 396 kts 310°
2026-04-25 21:43 51.22252 0.89187 35224 ft 396 kts 310°
2026-04-25 21:44 51.27486 0.83359 35224 ft 396 kts 310°
2026-04-25 21:45 51.34260 0.75794 35224 ft 397 kts 310°
2026-04-25 21:45 51.38790 0.70718 35224 ft 397 kts 310°
2026-04-25 21:46 51.43280 0.65676 35224 ft 397 kts 310°
2026-04-25 21:46 51.46989 0.61501 35224 ft 397 kts 310°
2026-04-25 21:47 51.52224 0.55594 35224 ft 397 kts 310°
2026-04-25 21:47 51.56733 0.50493 35224 ft 397 kts 310°
2026-04-25 21:48 51.61221 0.45404 35224 ft 397 kts 310°
2026-04-25 21:48 51.65727 0.40282 35225 ft 397 kts 310°
2026-04-25 21:49 51.69446 0.36043 35228 ft 397 kts 310°
2026-04-25 21:49 51.74731 0.30332 35236 ft 404 kts 313°
2026-04-25 21:50 51.78685 0.26553 35240 ft 405 kts 314°
2026-04-25 21:50 51.84289 0.21199 35246 ft 404 kts 314°
2026-04-25 21:51 51.88282 0.17353 35249 ft 404 kts 314°
2026-04-25 21:51 51.93074 0.12716 35251 ft 404 kts 314°
2026-04-25 21:52 51.97849 0.08078 35252 ft 403 kts 314°
2026-04-25 21:52 52.02597 0.03455 35252 ft 403 kts 314°
2026-04-25 21:53 52.07419 -0.01256 35252 ft 403 kts 314°
2026-04-25 21:53 52.12170 -0.05908 35250 ft 403 kts 314°
2026-04-25 21:54 52.17760 -0.11398 35248 ft 403 kts 314°
2026-04-25 21:54 52.21746 -0.15322 35245 ft 403 kts 314°
2026-04-25 21:55 52.26520 -0.20033 35243 ft 403 kts 314°
2026-04-25 21:55 52.31266 -0.24728 35244 ft 403 kts 314°
2026-04-25 21:56 52.36835 -0.30253 35247 ft 403 kts 314°
2026-04-25 21:56 52.40825 -0.34221 35250 ft 403 kts 314°
2026-04-25 21:57 52.45570 -0.38952 35251 ft 403 kts 314°
2026-04-25 21:57 52.50356 -0.43735 35252 ft 403 kts 314°
2026-04-25 21:58 52.55119 -0.48514 35252 ft 403 kts 313°
2026-04-25 21:58 52.59855 -0.53283 35252 ft 403 kts 314°
2026-04-25 21:59 52.64607 -0.58075 35252 ft 403 kts 314°
2026-04-25 21:59 52.69365 -0.62883 35253 ft 403 kts 314°
2026-04-25 22:00 52.76410 -0.70019 35261 ft 402 kts 313°
2026-04-25 22:00 52.81125 -0.74811 35266 ft 402 kts 313°
2026-04-25 22:01 52.85852 -0.79627 35272 ft 402 kts 313°
2026-04-25 22:01 52.89782 -0.83641 35275 ft 402 kts 313°
2026-04-25 22:02 52.95275 -0.89266 35277 ft 402 kts 313°
2026-04-25 22:02 53.00011 -0.94134 35276 ft 404 kts 313°
2026-04-25 22:03 53.04751 -0.99023 35276 ft 409 kts 313°
2026-04-25 22:03 53.10259 -1.04718 35275 ft 415 kts 314°
2026-04-25 22:04 53.14259 -1.08859 35276 ft 419 kts 314°
2026-04-25 22:04 53.19139 -1.13914 35277 ft 420 kts 314°
2026-04-25 22:05 53.24030 -1.18998 35278 ft 421 kts 314°
2026-04-25 22:05 53.28984 -1.24165 35278 ft 421 kts 314°
2026-04-25 22:06 53.33895 -1.29301 35279 ft 422 kts 314°
2026-04-25 22:06 53.38802 -1.34448 35281 ft 421 kts 314°
2026-04-25 22:07 53.42898 -1.38756 35285 ft 421 kts 314°
2026-04-25 22:07 53.48578 -1.44746 35292 ft 420 kts 314°
2026-04-25 22:08 53.53410 -1.49858 35298 ft 420 kts 314°
2026-04-25 22:08 53.58266 -1.55009 35302 ft 420 kts 314°
2026-04-25 22:09 53.63081 -1.60131 35304 ft 420 kts 314°
2026-04-25 22:09 53.67919 -1.65291 35307 ft 420 kts 313°
2026-04-25 22:10 53.72683 -1.70385 35307 ft 419 kts 313°
2026-04-25 22:10 53.77537 -1.75589 35306 ft 419 kts 313°
2026-04-25 22:11 53.82393 -1.80810 35306 ft 419 kts 313°
2026-04-25 22:11 53.87250 -1.86046 35306 ft 419 kts 313°
2026-04-25 22:12 53.92106 -1.91293 35306 ft 419 kts 313°
2026-04-25 22:12 53.96185 -1.95711 35306 ft 419 kts 313°
2026-04-25 22:13 54.01919 -2.01919 35306 ft 421 kts 314°
2026-04-25 22:13 54.06929 -2.06986 35306 ft 424 kts 315°
2026-04-25 22:14 54.11985 -2.12040 35304 ft 423 kts 315°
2026-04-25 22:14 54.17038 -2.17110 35306 ft 423 kts 315°
2026-04-25 22:15 54.22080 -2.22189 35306 ft 423 kts 315°
2026-04-25 22:16 54.29644 -2.29840 35306 ft 424 kts 315°
2026-04-25 22:16 54.34687 -2.34959 35306 ft 424 kts 315°
2026-04-25 22:17 54.39699 -2.40061 35306 ft 424 kts 315°
2026-04-25 22:17 54.44760 -2.45225 35164 ft 422 kts 315°
2026-04-25 22:17 54.47242 -2.47762 34495 ft 423 kts 315°
2026-04-25 22:18 54.49772 -2.50366 33509 ft 430 kts 315°
2026-04-25 22:18 54.52341 -2.53021 32492 ft 436 kts 316°
2026-04-25 22:18 54.54940 -2.55704 31482 ft 440 kts 316°
2026-04-25 22:18 54.57559 -2.58404 30456 ft 444 kts 317°
2026-04-25 22:19 54.60191 -2.61111 29691 ft 441 kts 317°
2026-04-25 22:19 54.62763 -2.63747 29076 ft 435 kts 317°
2026-04-25 22:19 54.65338 -2.66391 28481 ft 429 kts 317°
2026-04-25 22:19 54.67850 -2.68979 27987 ft 422 kts 317°
2026-04-25 22:20 54.70333 -2.71543 27539 ft 414 kts 317°
2026-04-25 22:20 54.72746 -2.74040 27194 ft 403 kts 316°
2026-04-25 22:20 54.75125 -2.76502 27008 ft 389 kts 316°
2026-04-25 22:20 54.77381 -2.78839 26881 ft 375 kts 316°
2026-04-25 22:21 54.79548 -2.81093 26753 ft 361 kts 315°
2026-04-25 22:21 54.81669 -2.83308 26632 ft 348 kts 315°
2026-04-25 22:21 54.83702 -2.85434 26518 ft 336 kts 314°
2026-04-25 22:21 54.85654 -2.87477 26402 ft 324 kts 314°
2026-04-25 22:22 54.87611 -2.89382 26302 ft 320 kts 318°
2026-04-25 22:22 54.89653 -2.91053 26296 ft 329 kts 322°
2026-04-25 22:22 54.91748 -2.92606 26284 ft 330 kts 323°
2026-04-25 22:22 54.93868 -2.94132 26046 ft 326 kts 323°
2026-04-25 22:23 54.95943 -2.95630 25615 ft 326 kts 324°
2026-04-25 22:23 54.98036 -2.97145 25209 ft 324 kts 324°
2026-04-25 22:23 55.00096 -2.98637 24839 ft 322 kts 325°
2026-04-25 22:23 55.02158 -3.00131 24468 ft 320 kts 326°
2026-04-25 22:24 55.04191 -3.01608 24100 ft 317 kts 326°
2026-04-25 22:24 55.06202 -3.03066 23739 ft 312 kts 326°
2026-04-25 22:24 55.08175 -3.04491 23109 ft 307 kts 326°
2026-04-25 22:24 55.10118 -3.05912 22318 ft 307 kts 327°
2026-04-25 22:25 55.12054 -3.07333 21587 ft 305 kts 327°
2026-04-25 22:25 55.13984 -3.08745 20892 ft 302 kts 328°
2026-04-25 22:25 55.15910 -3.10153 20229 ft 300 kts 328°
2026-04-25 22:25 55.17842 -3.11575 19694 ft 305 kts 329°
2026-04-25 22:26 55.19784 -3.13003 19203 ft 307 kts 329°
2026-04-25 22:26 55.21729 -3.14424 18917 ft 302 kts 329°
2026-04-25 22:26 55.23645 -3.15824 18630 ft 298 kts 329°
2026-04-25 22:26 55.25519 -3.17193 18265 ft 287 kts 329°
2026-04-25 22:27 55.27359 -3.18548 17564 ft 286 kts 329°
2026-04-25 22:27 55.29199 -3.19798 16871 ft 291 kts 338°
2026-04-25 22:27 55.31255 -3.20253 16363 ft 302 kts 355°
2026-04-25 22:27 55.33352 -3.20024 16101 ft 300 kts 359°
2026-04-25 22:28 55.35408 -3.19670 15838 ft 294 kts 360°
2026-04-25 22:28 55.37412 -3.19309 15372 ft 286 kts 360°
2026-04-25 22:28 55.39369 -3.18973 14854 ft 281 kts 360°
2026-04-25 22:28 55.41278 -3.18659 14349 ft 275 kts 360°
2026-04-25 22:29 55.43145 -3.18359 13863 ft 270 kts 360°
2026-04-25 22:29 55.45001 -3.18065 13421 ft 265 kts
2026-04-25 22:29 55.46815 -3.17779 12998 ft 260 kts
2026-04-25 22:30 55.50368 -3.17223 12324 ft 253 kts
2026-04-25 22:30 55.52085 -3.16953 12093 ft 249 kts
2026-04-25 22:30 55.53812 -3.16681 11855 ft 245 kts
2026-04-25 22:30 55.54935 -3.16503 11707 ft 242 kts
2026-04-25 22:31 55.57126 -3.16155 11392 ft 234 kts
2026-04-25 22:31 55.58746 -3.15900 10876 ft 235 kts
2026-04-25 22:31 55.60370 -3.15647 10387 ft 232 kts
2026-04-25 22:31 55.61948 -3.15401 10008 ft 231 kts
2026-04-25 22:32 55.63525 -3.15164 9790 ft 226 kts 357°
2026-04-25 22:32 55.64999 -3.15707 9561 ft 213 kts 326°
2026-04-25 22:32 55.65989 -3.17518 9338 ft 205 kts 297°
2026-04-25 22:32 55.66550 -3.19851 9075 ft 203 kts 290°
2026-04-25 22:33 55.66991 -3.22207 8800 ft 203 kts 288°
2026-04-25 22:33 55.67412 -3.24614 8526 ft 203 kts 288°
2026-04-25 22:33 55.67815 -3.26998 8255 ft 203 kts 288°
2026-04-25 22:33 55.68212 -3.29387 7983 ft 203 kts 288°
2026-04-25 22:34 55.68603 -3.31794 7709 ft 202 kts 288°
2026-04-25 22:34 55.68983 -3.34176 7440 ft 202 kts 288°
2026-04-25 22:34 55.69361 -3.36587 7168 ft 202 kts 288°
2026-04-25 22:34 55.69732 -3.38983 6898 ft 202 kts 288°
2026-04-25 22:35 55.70100 -3.41400 6626 ft 202 kts 288°
2026-04-25 22:35 55.70456 -3.43772 6361 ft 203 kts 288°
2026-04-25 22:35 55.70816 -3.46189 6093 ft 203 kts 288°
2026-04-25 22:35 55.71175 -3.48630 5823 ft 203 kts 288°
2026-04-25 22:36 55.71526 -3.51028 5560 ft 203 kts 288°
2026-04-25 22:36 55.71881 -3.53471 5293 ft 203 kts 289°
2026-04-25 22:36 55.72506 -3.55650 5006 ft 198 kts 317°
2026-04-25 22:36 55.73541 -3.57215 4753 ft 196 kts 326°
2026-04-25 22:37 55.74646 -3.58603 4496 ft 196 kts 328°
2026-04-25 22:37 55.75780 -3.59959 4162 ft 197 kts 328°
2026-04-25 22:37 55.76993 -3.61355 4005 ft 213 kts 328°
2026-04-25 22:37 55.78231 -3.62772 3918 ft 212 kts 328°
2026-04-25 22:38 55.79544 -3.63942 3619 ft 212 kts 351°
2026-04-25 22:38 55.80987 -3.63887 3375 ft 208 kts 13°
2026-04-25 22:38 55.82389 -3.63323 3155 ft 206 kts 18°
2026-04-25 22:38 55.83749 -3.62682 3012 ft 202 kts 18°
2026-04-25 22:39 55.85127 -3.62013 3007 ft 204 kts 18°
2026-04-25 22:39 55.86491 -3.61341 3005 ft 204 kts 21°
2026-04-25 22:39 55.87698 -3.60153 2940 ft 200 kts 46°
2026-04-25 22:39 55.88456 -3.58130 2620 ft 194 kts 73°
2026-04-25 22:40 55.88872 -3.55886 2293 ft 190 kts 73°
2026-04-25 22:40 55.89386 -3.53801 1999 ft 177 kts 62°
2026-04-25 22:40 55.90045 -3.52013 1708 ft 166 kts 57°
2026-04-25 22:40 55.90646 -3.50387 1524 ft 150 kts 60°
2026-04-25 22:41 55.91153 -3.48865 1350 ft 135 kts 63°
2026-04-25 22:41 55.91569 -3.47477 1155 ft 122 kts 62°
2026-04-25 22:41 55.91980 -3.46187 984 ft 118 kts 62°
2026-04-25 22:41 55.92406 -3.44945 871 ft 119 kts 60°
2026-04-25 22:42 55.92842 -3.43698 751 ft 118 kts 60°
2026-04-25 22:42 55.93260 -3.42432 610 ft 118 kts 62°
2026-04-25 22:42 55.93671 -3.41173 474 ft 118 kts 60°
2026-04-25 22:42 55.94101 -3.39913 286 ft 118 kts 61°
2026-04-25 22:43 55.94520 -3.38659 154 ft 117 kts 60°
2026-04-25 22:43 55.94921 -3.37471 101 ft 100 kts 58°
2026-04-25 22:43 55.95193 -3.36668 104 ft 50 kts 59°
2026-04-25 22:43 55.95254 -3.36427 104 ft 11 kts 114°
2026-04-25 22:44 55.95181 -3.36336 104 ft 13 kts 152°
2026-04-25 22:44 55.95138 -3.36307 104 ft 5 kts 204°
2026-04-25 22:44 55.95098 -3.36372 104 ft 10 kts 234°
2026-04-25 22:44 55.95024 -3.36390 104 ft 12 kts 187°
2026-04-25 22:45 55.94971 -3.36504 104 ft 7 kts 242°
2026-04-25 22:45 55.94962 -3.36534 104 ft 5 kts 239°
2026-04-25 22:45 55.94925 -3.36530 104 ft 7 kts 148°
2026-04-25 22:45 55.94901 -3.36502 104 ft 0 kts 147°